When you browse on this site, cookies collect data to enhance your experience and personalize the content and advertising you see.
Visit our Privacy Policy to learn more. By continuing to use the site, you agree to this use of cookies and data.
  • In Hungary
  • List of Countries
  • For 7 days
  • Water Temperature
  • Satellite Maps
  • Weather Map
  • News
  • Weather Widgets
  • user-avatar
    Login

    Hourly Weather Stanton

    Today, 12 December, Wednesday

    Time Temperature Precipitation Wind Pressure Humidity
    00:00 +18°C° 0 mm 1 mps 762 mmHg 51%
    01:00 +16°C° 0 mm 1 mps 762 mmHg 52%
    02:00 +16°C° 0 mm 1 mps 762 mmHg 53%
    03:00 +16°C° 0 mm 1 mps 762 mmHg 53%
    04:00 +16°C° 0 mm 1 mps 762 mmHg 54%
    05:00 +16°C° 0 mm 1 mps 762 mmHg 56%
    06:00 +15°C° 0 mm 1 mps 762 mmHg 58%
    07:00 +15°C° 0 mm 1 mps 762 mmHg 60%
    08:00 +18°C° 0 mm 1 mps 763 mmHg 56%
    09:00 +18°C° 0 mm 2 mps 763 mmHg 52%
    10:00 +19°C° 0 mm 2 mps 763 mmHg 48%
    11:00 +20°C° 0 mm 2 mps 763 mmHg 44%
    12:00 +21°C° 0 mm 2 mps 763 mmHg 40%
    13:00 +23°C° 0 mm 2 mps 763 mmHg 36%
    14:00 +23°C° 0 mm 2 mps 763 mmHg 38%
    15:00 +23°C° 0 mm 2 mps 763 mmHg 40%
    16:00 +23°C° 0 mm 2 mps 763 mmHg 42%
    17:00 +21°C° 0 mm 2 mps 763 mmHg 45%
    18:00 +21°C° 0 mm 1 mps 764 mmHg 48%
    19:00 +20°C° 0 mm 1 mps 765 mmHg 52%
    20:00 +19°C° 0 mm 1 mps 765 mmHg 50%
    21:00 +19°C° 0 mm 1 mps 765 mmHg 48%
    22:00 +19°C° 0 mm 1 mps 766 mmHg 46%
    23:00 +19°C° 0 mm 1 mps 766 mmHg 41%

    Tomorrow, 13 December, Thursday

    Time Temperature Precipitation Wind Pressure Humidity
    00:00 +18°C° 0 mm 2 mps 766 mmHg 36%
    01:00 +18°C° 0 mm 2 mps 766 mmHg 30%
    02:00 +17°C° 0 mm 2 mps 766 mmHg 28%
    03:00 +17°C° 0 mm 2 mps 766 mmHg 25%
    04:00 +17°C° 0 mm 2 mps 766 mmHg 22%
    05:00 +17°C° 0 mm 2 mps 766 mmHg 23%
    06:00 +17°C° 0 mm 2 mps 766 mmHg 23%
    07:00 +17°C° 0 mm 2 mps 766 mmHg 23%
    08:00 +19°C° 0 mm 2 mps 767 mmHg 21%
    09:00 +21°C° 0 mm 2 mps 767 mmHg 20%
    10:00 +24°C° 0 mm 2 mps 767 mmHg 18%
    11:00 +25°C° 0 mm 1 mps 766 mmHg 16%
    12:00 +26°C° 0 mm 1 mps 766 mmHg 15%
    13:00 +27°C° 0 mm 1 mps 765 mmHg 13%
    14:00 +26°C° 0 mm 1 mps 765 mmHg 15%
    15:00 +26°C° 0 mm 1 mps 765 mmHg 16%
    16:00 +25°C° 0 mm 1 mps 765 mmHg 18%
    17:00 +24°C° 0 mm 1 mps 765 mmHg 19%
    18:00 +23°C° 0 mm 1 mps 765 mmHg 21%
    19:00 +21°C° 0 mm 1 mps 765 mmHg 22%
    20:00 +21°C° 0 mm 1 mps 766 mmHg 22%
    21:00 +20°C° 0 mm 1 mps 766 mmHg 22%
    22:00 +20°C° 0 mm 1 mps 766 mmHg 21%
    23:00 +20°C° 0 mm 1 mps 765 mmHg 21%

    Day after tomorrow, 14 December, Friday

    Time Temperature Precipitation Wind Pressure Humidity
    00:00 +20°C° 0 mm 1 mps 765 mmHg 20%
    01:00 +20°C° 0 mm 1 mps 765 mmHg 19%
    02:00 +19°C° 0 mm 1 mps 764 mmHg 19%
    03:00 +19°C° 0 mm 1 mps 764 mmHg 18%
    04:00 +19°C° 0 mm 1 mps 763 mmHg 17%
    05:00 +19°C° 0 mm 1 mps 764 mmHg 17%
    06:00 +19°C° 0 mm 1 mps 764 mmHg 16%
    07:00 +19°C° 0 mm 1 mps 764 mmHg 16%
    08:00 +20°C° 0 mm 1 mps 764 mmHg 15%
    09:00 +21°C° 0 mm 1 mps 764 mmHg 15%
    10:00 +21°C° 0 mm 1 mps 764 mmHg 14%
    11:00 +22°C° 0 mm 1 mps 763 mmHg 13%
    12:00 +23°C° 0 mm 1 mps 763 mmHg 12%
    13:00 +23°C° 0 mm 1 mps 762 mmHg 11%
    14:00 +23°C° 0 mm 1 mps 762 mmHg 13%
    15:00 +23°C° 0 mm 1 mps 761 mmHg 14%
    16:00 +22°C° 0 mm 1 mps 761 mmHg 15%
    17:00 +21°C° 0 mm 1 mps 761 mmHg 17%
    18:00 +20°C° 0 mm 1 mps 762 mmHg 18%
    19:00 +19°C° 0 mm 1 mps 762 mmHg 19%
    20:00 +19°C° 0 mm 1 mps 762 mmHg 19%
    21:00 +18°C° 0 mm 2 mps 762 mmHg 19%
    22:00 +17°C° 0 mm 2 mps 762 mmHg 18%
    23:00 +18°C° 0 mm 1 mps 762 mmHg 17%

    15 December, Saturday

    Time Temperature Precipitation Wind Pressure Humidity
    00:00 +18°C° 0 mm 1 mps 762 mmHg 16%
    01:00 +18°C° 0 mm 1 mps 761 mmHg 15%
    02:00 +18°C° 0 mm 1 mps 761 mmHg 16%
    03:00 +16°C° 0 mm 1 mps 761 mmHg 16%
    04:00 +16°C° 0 mm 1 mps 761 mmHg 17%
    05:00 +16°C° 0 mm 1 mps 761 mmHg 18%
    06:00 +16°C° 0 mm 1 mps 761 mmHg 18%
    07:00 +16°C° 0 mm 1 mps 762 mmHg 19%
    08:00 +18°C° 0 mm 1 mps 762 mmHg 17%
    09:00 +20°C° 0 mm 1 mps 762 mmHg 16%
    10:00 +22°C° 0 mm 1 mps 762 mmHg 14%
    11:00 +23°C° 0 mm 1 mps 762 mmHg 14%
    12:00 +23°C° 0 mm 1 mps 761 mmHg 14%
    13:00 +24°C° 0 mm 1 mps 761 mmHg 14%
    14:00 +24°C° 0 mm 1 mps 761 mmHg 16%
    15:00 +24°C° 0 mm 2 mps 761 mmHg 17%
    16:00 +23°C° 0 mm 2 mps 761 mmHg 19%
    17:00 +21°C° 0 mm 2 mps 761 mmHg 20%
    18:00 +20°C° 0 mm 2 mps 762 mmHg 22%
    19:00 +20°C° 0 mm 1 mps 762 mmHg 24%
    20:00 +20°C° 0 mm 1 mps 763 mmHg 23%
    21:00 +20°C° 0 mm 1 mps 763 mmHg 23%
    22:00 +19°C° 0 mm 1 mps 763 mmHg 22%
    23:00 +19°C° 0 mm 1 mps 763 mmHg 22%

    16 December, Sunday

    Time Temperature Precipitation Wind Pressure Humidity
    00:00 +19°C° 0 mm 1 mps 763 mmHg 22%
    01:00 +19°C° 0 mm 1 mps 763 mmHg 22%
    02:00 +18°C° 0 mm 1 mps 763 mmHg 22%
    03:00 +18°C° 0 mm 1 mps 763 mmHg 22%
    04:00 +18°C° 0 mm 1 mps 762 mmHg 21%
    05:00 +18°C° 0 mm 1 mps 763 mmHg 22%
    06:00 +18°C° 0 mm 1 mps 763 mmHg 23%
    07:00 +18°C° 0 mm 1 mps 763 mmHg 23%
    08:00 +19°C° 0 mm 1 mps 763 mmHg 21%
    09:00 +21°C° 0 mm 1 mps 764 mmHg 20%
    10:00 +23°C° 0 mm 1 mps 764 mmHg 18%
    11:00 +23°C° 0 mm 1 mps 763 mmHg 18%
    12:00 +24°C° 0 mm 1 mps 763 mmHg 17%
    13:00 +25°C° 0 mm 1 mps 763 mmHg 16%
    14:00 +24°C° 0 mm 1 mps 763 mmHg 19%
    15:00 +23°C° 0 mm 2 mps 763 mmHg 21%
    16:00 +23°C° 0 mm 2 mps 762 mmHg 24%
    17:00 +22°C° 0 mm 1 mps 763 mmHg 27%
    18:00 +21°C° 0 mm 1 mps 763 mmHg 31%
    19:00 +20°C° 0 mm 1 mps 764 mmHg 35%
    20:00 +19°C° 0 mm 1 mps 764 mmHg 38%
    21:00 +19°C° 0 mm 1 mps 764 mmHg 41%
    22:00 +19°C° 0 mm 1 mps 764 mmHg 44%
    23:00 +18°C° 0 mm 1 mps 764 mmHg 46%

    17 December, Monday

    Time Temperature Precipitation Wind Pressure Humidity
    00:00 +18°C° 0 mm 1 mps 763 mmHg 48%
    01:00 +16°C° 0 mm 1 mps 763 mmHg 49%
    02:00 +16°C° 0 mm 1 mps 763 mmHg 50%
    03:00 +15°C° 0 mm 1 mps 763 mmHg 50%
    04:00 +15°C° 0 mm 1 mps 763 mmHg 50%
    05:00 +15°C° 0 mm 1 mps 763 mmHg 50%
    06:00 +15°C° 0 mm 1 mps 763 mmHg 50%
    07:00 +15°C° 0 mm 1 mps 764 mmHg 50%
    08:00 +15°C° 0.1 mm 1 mps 764 mmHg 50%
    09:00 +16°C° 0.1 mm 1 mps 764 mmHg 50%
    10:00 +16°C° 0.1 mm 1 mps 764 mmHg 50%
    11:00 +17°C° 0 mm 2 mps 764 mmHg 51%
    12:00 +17°C° 0 mm 2 mps 763 mmHg 51%
    13:00 +18°C° 0 mm 2 mps 763 mmHg 51%
    14:00 +18°C° 0 mm 2 mps 762 mmHg 51%
    15:00 +18°C° 0 mm 2 mps 762 mmHg 50%
    16:00 +18°C° 0 mm 2 mps 762 mmHg 50%
    17:00 +17°C° 0 mm 2 mps 763 mmHg 52%
    18:00 +17°C° 0 mm 2 mps 763 mmHg 55%
    19:00 +16°C° 0 mm 2 mps 764 mmHg 57%
    20:00 +16°C° 0 mm 2 mps 764 mmHg 58%
    21:00 +16°C° 0 mm 2 mps 764 mmHg 59%
    22:00 +15°C° 0 mm 2 mps 764 mmHg 59%
    23:00 +15°C° 0 mm 2 mps 764 mmHg 58%
    Show more